User: anonymous   Login
Location: Unspecified
(0.0000°N, 0.0000°E)
Time: 11:32:43
(UTC+00:00)
Language:

STMSAT 1 - Orbit

View from above orbital plane
View from above orbital plane
View from above satellite
View from above satellite

Ground track
Ground track

The orbit data is extracted from the following two-line orbital elements,

1 41476U 98067HW  17110.92644424 +.05491109 +12138-4 +11894-2 0  9990
2 41476 051.6168 282.7472 0011810 288.2314 071.7422 16.29591596053242
Epoch (UTC): 20 April 2017 22:14:04
Eccentricity: 0.0011810
inclination: 51.6168°
perigee height: 186 km
apogee height: 201 km
right ascension of ascending node: 282.7472°
argument of perigee: 288.2314°
revolutions per day: 16.29591596
mean anomaly at epoch: 71.7422°
orbit number at epoch: 5324

The dashed part of the orbit path shows where the satellite is in the earth's shadow,  

DLR